Location: Deer Path Park
(40.5570°N, 74.8450°W)
Time: 20:34:29
(UTC-04:00)

Iridium 49 - Visible Passes

Search period start: 28 July 2014 00:00
Search period end: 07 August 2014 00:00
Orbit: 776 x 779 km, 86.4° (Epoch: 28 July)

Date Brightness Start Highest point End Pass type
(mag) Time Alt. Az. Time Alt. Az. Time Alt. Az.
28 Jul 6.7 02:42:59 41° ESE 02:44:03 47° E 02:49:02 10° NNE visible
28 Jul 7.5 04:23:28 17° W 04:25:02 20° WNW 04:28:45 10° NNW visible
29 Jul 7.6 02:09:46 24° E 02:10:44 26° E 02:14:58 10° NNE visible
29 Jul 6.8 03:50:15 32° WSW 03:51:15 35° W 03:56:01 10° NNW visible
30 Jul 8.3 01:36:33 13° E 01:37:32 14° ENE 01:40:09 10° NE visible
30 Jul 6.0 03:17:02 60° WSW 03:17:37 65° W 03:22:48 10° N visible
31 Jul 6.1 02:43:48 67° ESE 02:44:06 69° E 02:49:17 10° N visible
31 Jul 7.9 04:24:17 13° W 04:25:21 14° WNW 04:27:52 10° NW visible
01 Aug 7.1 02:10:33 37° E 02:10:42 37° E 02:15:27 10° NNE visible
01 Aug 7.2 03:51:02 24° W 03:51:29 25° WNW 03:55:43 10° NNW visible
02 Aug 7.9 01:37:18 20° E 01:37:25 20° E 01:41:10 10° NE visible
02 Aug 6.5 03:17:47 44° W 03:17:47 44° W 03:22:45 10° N visible
03 Aug 8.5 01:04:02 11° ENE 01:04:16 11° ENE 01:05:24 10° ENE visible
03 Aug 6.0 02:44:31 77° NNW 02:44:31 77° NNW 02:49:24 10° N visible
04 Aug 6.6 02:11:15 51° ENE 02:11:15 51° ENE 02:15:46 10° NNE visible
04 Aug 7.7 03:51:43 17° WNW 03:51:46 17° WNW 03:55:09 10° NW visible
05 Aug 7.5 01:37:58 28° ENE 01:37:58 28° ENE 01:41:47 10° NNE visible
05 Aug 7.1 03:18:27 30° WNW 03:18:27 30° WNW 03:22:34 10° NNW visible
06 Aug 8.2 01:04:40 16° ENE 01:04:40 16° ENE 01:07:11 10° NE visible
06 Aug 6.5 02:45:09 50° NW 02:45:09 50° NW 02:49:25 10° N visible
